When you browse on this site, cookies collect data to enhance your experience and personalize the content and advertising you see.
Visit our Privacy Policy to learn more. By continuing to use the site, you agree to this use of cookies and data.
  • In Lithuania
  • List of Countries
  • For 7 days
  • Water Temperature
  • Weather Map
  • Weather Widgets
  • user-avatar
    Login

    Hourly Weather Escaldes-Engordany

    Today, 4 April, Saturday

    Time Temperature Precipitation Wind Pressure Humidity
    00:00 0°C° 0 mm 1 mps 636 mmHg 56%
    01:00 0°C° 0 mm 1 mps 636 mmHg 60%
    02:00 0°C° 0 mm 1 mps 636 mmHg 65%
    03:00 0°C° 0 mm 1 mps 636 mmHg 69%
    04:00 0°C° 0 mm 1 mps 636 mmHg 65%
    05:00 +1°C° 0 mm 1 mps 636 mmHg 62%
    06:00 +1°C° 0 mm 1 mps 636 mmHg 60%
    07:00 +4°C° 0 mm 1 mps 638 mmHg 59%
    08:00 +7°C° 0 mm 1 mps 639 mmHg 59%
    09:00 +10°C° 0 mm 1 mps 640 mmHg 59%
    10:00 +11°C° 0 mm 1 mps 640 mmHg 58%
    11:00 +12°C° 0 mm 1 mps 640 mmHg 57%
    12:00 +13°C° 0 mm 2 mps 640 mmHg 55%
    13:00 +13°C° 0 mm 2 mps 640 mmHg 57%
    14:00 +13°C° 0 mm 2 mps 640 mmHg 59%
    15:00 +13°C° 0 mm 2 mps 640 mmHg 60%
    16:00 +10°C° 0 mm 2 mps 639 mmHg 68%
    17:00 +8°C° 0 mm 2 mps 638 mmHg 75%
    18:00 +7°C° 0 mm 1 mps 638 mmHg 83%
    19:00 +6°C° 0 mm 1 mps 638 mmHg 86%
    20:00 +5°C° 0 mm 1 mps 638 mmHg 89%
    21:00 +3°C° 0 mm 2 mps 638 mmHg 92%
    22:00 +2°C° 0 mm 2 mps 638 mmHg 91%
    23:00 +2°C° 0 mm 2 mps 638 mmHg 91%

    Tomorrow, 5 April, Sunday

    Time Temperature Precipitation Wind Pressure Humidity
    00:00 +2°C° 0 mm 2 mps 638 mmHg 90%
    01:00 +2°C° 0 mm 2 mps 638 mmHg 89%
    02:00 +1°C° 0 mm 2 mps 637 mmHg 88%
    03:00 +1°C° 0 mm 2 mps 637 mmHg 87%
    04:00 +1°C° 0 mm 2 mps 637 mmHg 83%
    05:00 -1°C° 0 mm 2 mps 637 mmHg 79%
    06:00 -1°C° 0 mm 2 mps 637 mmHg 76%
    07:00 +3°C° 0 mm 2 mps 638 mmHg 67%
    08:00 +5°C° 0 mm 2 mps 639 mmHg 58%
    09:00 +7°C° 0 mm 2 mps 640 mmHg 49%
    10:00 +8°C° 0 mm 3 mps 640 mmHg 48%
    11:00 +9°C° 0 mm 3 mps 640 mmHg 46%
    12:00 +10°C° 0 mm 3 mps 641 mmHg 44%
    13:00 +10°C° 0 mm 3 mps 640 mmHg 45%
    14:00 +10°C° 0 mm 3 mps 640 mmHg 45%
    15:00 +10°C° 0 mm 3 mps 640 mmHg 45%
    16:00 +8°C° 0 mm 3 mps 639 mmHg 53%
    17:00 +7°C° 0 mm 2 mps 639 mmHg 60%
    18:00 +5°C° 0 mm 2 mps 638 mmHg 68%
    19:00 +4°C° 0 mm 2 mps 638 mmHg 71%
    20:00 +4°C° 0 mm 1 mps 638 mmHg 75%
    21:00 +3°C° 0 mm 1 mps 638 mmHg 78%
    22:00 +3°C° 0 mm 1 mps 638 mmHg 79%
    23:00 +3°C° 0 mm 1 mps 638 mmHg 79%

    Day after tomorrow, 6 April, Monday

    Time Temperature Precipitation Wind Pressure Humidity
    00:00 +3°C° 0 mm 1 mps 638 mmHg 79%
    01:00 +3°C° 0 mm 1 mps 638 mmHg 78%
    02:00 +3°C° 0 mm 1 mps 638 mmHg 78%
    03:00 +3°C° 0 mm 1 mps 638 mmHg 77%
    04:00 +3°C° 0 mm 1 mps 638 mmHg 77%
    05:00 +4°C° 0 mm 1 mps 638 mmHg 77%
    06:00 +4°C° 0 mm 1 mps 638 mmHg 78%
    07:00 +5°C° 0 mm 1 mps 639 mmHg 75%
    08:00 +6°C° 0 mm 2 mps 640 mmHg 72%
    09:00 +7°C° 0 mm 2 mps 641 mmHg 69%
    10:00 +8°C° 0.2 mm 2 mps 641 mmHg 72%
    11:00 +9°C° 0.2 mm 1 mps 641 mmHg 75%
    12:00 +9°C° 0.2 mm 1 mps 642 mmHg 78%
    13:00 +8°C° 0.6 mm 1 mps 641 mmHg 83%
    14:00 +7°C° 0.6 mm 1 mps 641 mmHg 88%
    15:00 +6°C° 0.6 mm 1 mps 641 mmHg 93%
    16:00 +5°C° 0.5 mm 0 mps 641 mmHg 94%
    17:00 +5°C° 0.5 mm 0 mps 641 mmHg 96%
    18:00 +5°C° 0.5 mm 0 mps 641 mmHg 97%
    19:00 +5°C° 0.3 mm 0 mps 642 mmHg 97%
    20:00 +5°C° 0.3 mm 0 mps 643 mmHg 98%
    21:00 +5°C° 0.3 mm 0 mps 643 mmHg 98%
    22:00 +5°C° 0.5 mm 0 mps 643 mmHg 98%
    23:00 +5°C° 0.5 mm 0 mps 643 mmHg 98%

    7 April, Tuesday

    Time Temperature Precipitation Wind Pressure Humidity
    00:00 +5°C° 0.5 mm 0 mps 643 mmHg 98%
    01:00 +5°C° 0.3 mm 0 mps 643 mmHg 98%
    02:00 +5°C° 0.3 mm 0 mps 643 mmHg 98%
    03:00 +5°C° 0.3 mm 0 mps 642 mmHg 99%
    04:00 +5°C° 0.2 mm 0 mps 642 mmHg 98%
    05:00 +5°C° 0.2 mm 0 mps 642 mmHg 98%
    06:00 +5°C° 0.2 mm 0 mps 642 mmHg 98%
    07:00 +5°C° 0.1 mm 0 mps 643 mmHg 97%
    08:00 +5°C° 0.1 mm 0 mps 643 mmHg 96%
    09:00 +6°C° 0.1 mm 0 mps 644 mmHg 94%
    10:00 +7°C° 0.1 mm 1 mps 644 mmHg 93%
    11:00 +8°C° 0.1 mm 1 mps 644 mmHg 92%
    12:00 +8°C° 0.1 mm 1 mps 644 mmHg 90%
    13:00 +8°C° 0.2 mm 1 mps 644 mmHg 91%
    14:00 +8°C° 0.2 mm 1 mps 644 mmHg 92%
    15:00 +8°C° 0.2 mm 1 mps 644 mmHg 92%
    16:00 +7°C° 0.2 mm 1 mps 643 mmHg 93%
    17:00 +6°C° 0.2 mm 0 mps 643 mmHg 94%
    18:00 +6°C° 0.2 mm 0 mps 643 mmHg 95%
    19:00 +5°C° 0.1 mm 0 mps 643 mmHg 95%
    20:00 +5°C° 0.1 mm 0 mps 644 mmHg 95%
    21:00 +5°C° 0.1 mm 0 mps 644 mmHg 95%
    22:00 +5°C° 0 mm 0 mps 644 mmHg 95%
    23:00 +4°C° 0 mm 0 mps 643 mmHg 94%

    8 April, Wednesday

    Time Temperature Precipitation Wind Pressure Humidity
    00:00 +4°C° 0 mm 0 mps 643 mmHg 94%
    01:00 +4°C° 0 mm 0 mps 643 mmHg 93%
    02:00 +4°C° 0 mm 0 mps 643 mmHg 93%
    03:00 +4°C° 0 mm 0 mps 643 mmHg 92%
    04:00 +4°C° 0 mm 0 mps 643 mmHg 92%
    05:00 +4°C° 0 mm 0 mps 643 mmHg 91%
    06:00 +4°C° 0 mm 0 mps 643 mmHg 91%
    07:00 +7°C° 0 mm 1 mps 643 mmHg 85%
    08:00 +9°C° 0 mm 1 mps 644 mmHg 80%
    09:00 +11°C° 0 mm 1 mps 645 mmHg 74%
    10:00 +11°C° 0.1 mm 1 mps 644 mmHg 73%
    11:00 +11°C° 0.1 mm 1 mps 644 mmHg 73%
    12:00 +11°C° 0.1 mm 1 mps 644 mmHg 72%
    13:00 +11°C° 0.4 mm 1 mps 644 mmHg 73%
    14:00 +11°C° 0.4 mm 1 mps 643 mmHg 74%
    15:00 +11°C° 0.4 mm 1 mps 643 mmHg 76%
    16:00 +10°C° 0.3 mm 1 mps 643 mmHg 78%
    17:00 +9°C° 0.3 mm 1 mps 643 mmHg 81%
    18:00 +8°C° 0.3 mm 0 mps 642 mmHg 84%
    19:00 +7°C° 0.1 mm 0 mps 642 mmHg 86%
    20:00 +6°C° 0.1 mm 0 mps 642 mmHg 88%
    21:00 +5°C° 0.1 mm 0 mps 642 mmHg 90%
    22:00 +6°C° 0 mm 1 mps 642 mmHg 90%
    23:00 +5°C° 0 mm 1 mps 642 mmHg 90%

    9 April, Thursday

    Time Temperature Precipitation Wind Pressure Humidity
    00:00 +5°C° 0 mm 1 mps 642 mmHg 90%
    01:00 +5°C° 0 mm 1 mps 641 mmHg 88%
    02:00 +4°C° 0 mm 1 mps 641 mmHg 86%
    03:00 +4°C° 0 mm 1 mps 641 mmHg 84%
    04:00 +4°C° 0 mm 1 mps 641 mmHg 79%
    05:00 +4°C° 0 mm 1 mps 641 mmHg 74%
    06:00 +4°C° 0 mm 1 mps 641 mmHg 69%
    07:00 +7°C° 0 mm 1 mps 642 mmHg 61%
    08:00 +9°C° 0 mm 1 mps 643 mmHg 52%
    09:00 +11°C° 0 mm 0 mps 644 mmHg 44%
    10:00 +13°C° 0 mm 1 mps 644 mmHg 41%
    11:00 +14°C° 0 mm 1 mps 644 mmHg 39%
    12:00 +15°C° 0 mm 2 mps 644 mmHg 36%
    13:00 +15°C° 0 mm 2 mps 644 mmHg 39%
    14:00 +14°C° 0 mm 2 mps 643 mmHg 42%
    15:00 +14°C° 0 mm 2 mps 643 mmHg 44%
    16:00 +13°C° 0.1 mm 1 mps 643 mmHg 53%
    17:00 +11°C° 0.1 mm 1 mps 642 mmHg 61%
    18:00 +10°C° 0.1 mm 1 mps 641 mmHg 69%
    19:00 +8°C° 0 mm 1 mps 641 mmHg 72%
    20:00 +7°C° 0 mm 1 mps 641 mmHg 74%
    21:00 +5°C° 0 mm 0 mps 641 mmHg 77%
    22:00 +6°C° 0 mm 1 mps 641 mmHg 78%
    23:00 +6°C° 0 mm 1 mps 641 mmHg 79%
    Show more